Location: *
(28.2408°N, 53.4600°E)
Time: 12:41:42
(UTC+00:00)

COSMOS 2455 - Pass Details

Date: 22 September 2019
Orbit: 900 x 909 km, 67.1° (Epoch: 20 October)

Event Time Altitude Azimuth Distance (km) Brightness Sun altitude
Rises 15:07:27 0° 332° (NNW) 3,536 6.4 -10.5°
Reaches altitude 10° 15:09:59 10° 330° (NNW) 2,591 5.8 -11.1°
Maximum altitude 15:15:55 65° 249° (WSW) 990 3.3 -12.4°
Drops below altitude 10° 15:21:50 10° 169° (SSE) 2,574 5.0 -13.7°
Sets 15:24:20 0° 166° (SSE) 3,511 5.7 -14.2°
